Location: Township of Marena
(38.1747°N, 99.6798°W)
Time: 03:27:11
(UTC+00:00)

Cosmos 1825 Rocket - Pass Details

Date: 26 October 2020
Orbit: 603 x 631 km, 82.5° (Epoch: 27 November)

Event Time Altitude Azimuth Distance (km) Brightness Sun altitude
Rises 00:08:55 0° 358° (N) 2,923 6.9 -5.0°
Reaches altitude 10° 00:11:15 10° 4° (N) 2,008 6.0 -5.5°
Maximum altitude 00:15:33 48° 80° (E) 814 3.8 -6.3°
Drops below altitude 10° 00:19:48 10° 155° (SSE) 1,978 6.0 -7.1°
Sets 00:22:04 0° 161° (SSE) 2,874 6.9 -7.6°
